EW9827 Weather Reports


time (UTC)temp
C
wind
direction
speed
KPH
gust
KPH
rain 1hr
cm
rain 24hr
cm
rain mn
cm
humidity
%
barometer
mb
20260509213040 13 145 1.6 11.3 0.00 1.80 0.00 80 1008.1
20260509211538 13 144 0.0 12.9 0.00 1.80 0.00 82 1008.2
20260509210033 13 145 1.6 8.0 0.00 1.80 0.00 83 1008.3
20260509204530 13 145 0.0 9.7 0.00 1.80 0.00 84 1008.5
20260509203033 13 144 1.6 6.4 0.00 1.80 0.00 86 1009.0
20260509201524 12 145 4.8 12.9 0.00 1.80 0.00 87 1009.0
20260509200024 13 144 0.0 16.1 0.00 1.80 0.00 88 1008.9
20260509194523 12 145 3.2 9.7 0.00 1.80 0.00 92 1009.3
20260509193044 11 144 3.2 12.9 0.00 1.80 0.00 93 1009.4
20260509191543 11 145 1.6 6.4 0.00 1.80 1.80 95 1009.6
20260509190042 10 145 1.6 8.0 0.00 1.80 1.80 95 1009.7
20260509184539 10 145 1.6 8.0 0.00 1.80 1.80 96 1009.9
20260509183050 10 145 1.6 9.7 0.00 1.80 1.80 96 1009.7
20260509181545 9 145 0.0 16.1 0.00 1.80 1.80 96 1009.7
20260509180036 9 145 0.0 9.7 0.00 1.80 1.80 96 1009.7
20260509174536 9 145 0.0 9.7 0.00 1.80 1.80 96 1009.5
20260509173033 9 145 0.0 9.7 0.03 1.80 1.80 96 1009.6
20260509171532 9 145 0.0 4.8 0.03 1.80 1.80 96 1009.4
20260509170030 8 144 0.0 6.4 0.05 1.80 1.80 96 1009.4
20260509164529 9 144 1.6 4.8 0.10 1.80 1.80 96 1009.4
20260509163032 8 144 1.6 8.0 0.10 1.78 1.78 96 1009.3
20260509161531 8 145 0.0 6.4 0.13 1.78 1.78 96 1009.2
20260509160025 8 145 0.0 6.4 0.13 1.75 1.75 96 1009.1
20260509154524 8 145 0.0 9.7 0.08 1.70 1.70 96 1009.2
20260509153024 8 145 1.6 11.3 0.08 1.68 1.68 96 1009.3
20260509151523 8 145 0.0 4.8 0.08 1.65 1.65 96 1009.3
20260509150051 8 145 0.0 4.8 0.08 1.63 1.63 96 1009.4
20260509144550 8 145 0.0 8.0 0.08 1.63 1.63 96 1009.4
20260509143048 8 145 0.0 3.2 0.05 1.60 1.60 96 1009.6
20260509141546 8 145 1.6 9.7 0.05 1.57 1.57 96 1009.7
20260509140054 7 145 0.0 3.2 0.03 1.55 1.55 96 1009.7
20260509134546 7 145 0.0 4.8 0.03 1.55 1.55 96 1009.6
20260509133015 7 145 0.0 6.4 0.03 1.55 1.55 96 1009.9
20260509131512 7 145 1.6 8.0 0.00 1.52 1.52 96 1009.9
20260509130011 7 145 1.6 0.0 0.00 0.00 1.52 96 1010.1
20260509124509 7 145 0.0 3.2 0.03 1.52 1.52 96 1010.3
20260509123009 7 145 0.0 1.6 0.08 1.52 1.52 96 1010.2
20260509121508 7 145 0.0 1.6 0.13 1.52 1.52 96 1010.3
20260509120004 7 146 0.0 0.0 0.13 1.50 1.50 96 1010.4
20260509114503 6 146 0.0 1.6 0.18 1.50 1.50 96 1010.5
20260509113002 6 146 0.0 1.6 0.20 1.42 1.42 96 1010.7
20260509111502 6 146 0.0 1.6 0.18 1.40 1.40 96 1010.7
20260509110059 6 146 0.0 0.0 0.20 1.37 1.37 96 1010.5
20260509104559 6 146 0.0 1.6 0.18 1.32 1.32 96 1010.7
20260509103102 6 146 0.0 3.2 0.13 1.24 1.24 96 1010.7
20260509101559 6 146 0.0 1.6 0.15 1.24 1.22 96 1010.9
20260509100058 6 146 0.0 1.6 0.15 1.19 1.17 96 1010.9
20260509094554 6 146 0.0 1.6 0.20 1.17 1.14 96 1010.9
20260509093057 6 146 0.0 3.2 0.18 1.14 1.12 96 1010.8
20260509091554 6 146 0.0 1.6 0.13 1.09 1.07 96 1010.8
20260509090051 6 146 0.0 1.6 0.10 1.04 1.02 96 1010.9
20260509084555 6 146 0.0 1.6 0.05 0.97 0.94 96 1011.1
20260509083051 6 146 0.0 1.6 0.10 0.97 0.94 96 1010.9
20260509081549 6 146 0.0 3.2 0.15 0.97 0.94 96 1011.0
20260509080029 6 146 0.0 3.2 0.15 0.94 0.91 95 1010.8
20260509074518 6 146 0.0 1.6 0.13 0.91 0.89 95 1010.8
20260509073014 6 146 0.0 1.6 0.08 0.86 0.84 95 1011.2
20260509071513 6 146 0.0 0.0 0.05 0.81 0.79 95 1011.3
20260509070013 6 146 0.0 0.0 0.05 0.79 0.76 95 1011.3
20260509064511 6 146 0.0 0.0 0.05 0.79 0.76 95 1011.5
20260509063012 6 146 0.0 0.0 0.08 0.79 0.76 95 1011.7
20260509061537 6 146 0.0 1.6 0.05 0.76 0.71 95 1012.1
20260509060037 6 146 0.0 1.6 0.03 0.71 0.71 95 1012.5
20260509054538 6 146 0.0 3.2 0.05 0.71 0.71 95 1012.8
20260509053038 6 146 0.0 3.2 0.05 0.71 0.69 95 1012.8
20260509051537 6 146 0.0 4.8 0.08 0.71 0.69 95 1013.0
20260509050032 6 146 0.0 3.2 0.13 0.71 0.69 95 1013.1
20260509044529 6 146 0.0 1.6 0.13 0.69 0.66 95 1013.1
20260509043028 6 146 0.0 3.2 0.10 0.66 0.64 95 1013.3
20260509041531 6 146 0.0 0.0 0.10 0.64 0.61 94 1013.4
20260509040027 6 146 0.0 3.2 0.08 0.58 0.56 94 1013.6
20260509034526 6 146 0.0 1.6 0.08 0.56 0.53 94 1013.4
20260509033024 6 146 0.0 0.0 0.13 0.56 0.53 94 1013.4
20260509031525 6 146 0.0 0.0 0.13 0.53 0.51 94 1013.4
20260509030024 6 146 0.0 3.2 0.13 0.51 0.48 94 1013.5
20260509024520 6 146 0.0 3.2 0.13 0.48 0.46 94 1013.7
20260509023021 6 146 0.0 3.2 0.10 0.43 0.41 93 1013.6
20260509021519 6 146 0.0 4.8 0.15 0.41 0.38 93 1013.5
20260509020017 6 147 0.0 9.7 0.23 0.38 0.36 93 1013.7
20260509014533 7 147 1.6 6.4 0.28 0.36 0.33 92 1013.6
20260509013012 7 147 1.6 8.0 0.28 0.33 0.30 92 1013.7
20260509011510 7 147 1.6 6.4 0.20 0.25 0.23 91 1013.6
20260509010006 7 147 0.0 3.2 0.10 0.15 0.13 89 1013.3
20260509004626 7 147 0.0 3.2 0.03 0.08 0.05 88 1013.1
20260509003100 7 147 0.0 1.6 0.00 0.05 0.03 87 1012.8
20260509001558 7 147 0.0 6.4 0.03 0.05 0.03 88 1012.8
20260509000056 7 147 0.0 6.4 0.03 0.05 0.03 88 1012.7
20260508234552 8 147 0.0 8.0 0.03 0.05 0.03 88 1012.6
20260508233101 8 147 1.6 12.9 0.03 0.05 0.03 86 1012.7
20260508231550 9 147 0.0 11.3 0.00 0.03 0.00 82 1012.6
20260508230052 10 147 1.6 14.5 0.00 0.03 0.00 78 1012.3
20260508224509 10 148 3.2 11.3 0.00 0.03 0.00 77 1012.1
20260508223011 10 148 0.0 4.8 0.00 0.03 0.00 75 1012.0
20260508221504 10 148 0.0 12.9 0.00 0.03 0.00 74 1012.0
20260508220002 10 148 3.2 9.7 0.00 0.03 0.00 75 1012.2
20260508214500 10 148 3.2 9.7 0.00 0.03 0.00 77 1012.2